Location: Baix
(44.7118°N, 4.7648°E)
Time: 15:20:41
(UTC+00:00)

Explorer 11/Cluster Stage 4 - Pass Details

Date: 01 December 2020
Orbit: 467 x 1258 km, 28.8° (Epoch: 14 January)

Event Time Altitude Azimuth Distance (km) Brightness Sun altitude
Rises 20:48:02 0° 233° (SW) 4,019 10.5 -49.8°
Enters shadow 20:49:21 - 228° (SW) 3,637 10.2 -50.0°
Reaches altitude 10° 20:51:59 10° 216° (SW) 2,934 - -50.5°
Maximum altitude 20:56:35 18° 176° (S) 2,213 - -51.2°
Drops below altitude 10° 21:00:42 10° 135° (SE) 2,570 - -51.9°
Sets 21:03:51 0° 117° (ESE) 3,350 - -52.4°
